Miscellaneous Local Product
Issued by NWS Hastings, NE

Home | Current Version | Previous Version | Graphics & Text | Print | Product List | Glossary Off
Versions: 1 2 3 4 5 6 7 8 9 10 11 12 13 14 15 16 17 18 19 20 21 22 23 24 25 26 27 28 29 30 31 32 33 34 35 36 37 38 39 40 41 42 43 44 45 46 47 48 49 50

000
AXUS43 KGID 271202
MISGRI

GID CWA HOURLY WEATHER ROUNDUP
NATIONAL WEATHER SERVICE HASTINGS NE
700 AM CDT SAT AUG 27 2016

NOTE: "FAIR" INDICATES FEW OR NO CLOUDS BELOW 12,000 FEET WITH NO
SIGNIFICANT WEATHER AND/OR OBSTRUCTIONS TO VISIBILITY.

...SOUTH CENTRAL NEBRASKA...

CITY           SKY/WX    TMP DP  RH WIND       PRES   REMARKS
GRAND ISLAND   FOG       56  55  97 W7        30.04R VSB 1/4
HASTINGS       FOG       57  56  96 CALM      30.05R VSB 1
KEARNEY        CLEAR     55  54  94 S3        30.05R
ORD            FOG       59  58  96 CALM      30.03R VSB 1
YORK           FOG       63  63 100 CALM      30.03S VSB<1/4
AURORA         FOG       60  60 100 CALM      30.03S VSB 1/4
LEXINGTON        N/A     53  51  94 CALM      30.04S FOG
HOLDREGE       CLEAR     53  51  95 CALM      30.06S
HEBRON         CLOUDY    66  65  98 CALM      30.03R FOG

...NEBRASKA PANHANDLE...

CITY           SKY/WX    TMP DP  RH WIND       PRES   REMARKS
CHADRON        CLEAR     50  48  93 SE3       30.03R
ALLIANCE       FOG       55  54  96 S8        30.05S VSB 3/4
SCOTTSBLUFF    FOG       54  53  97 SE7       30.05S VSB 1/4
SIDNEY         FOG       50  50 100 SE6       30.08S VSB 1/2

...WESTERN AND NORTH CENTRAL NEBRASKA...

CITY           SKY/WX    TMP DP  RH WIND       PRES   REMARKS
VALENTINE      MOCLDY    56  54  93 S9        30.01F
AINSWORTH      CLOUDY    57  57 100 W12       30.04R FOG
ONEILL         FOG       57  56  96 CALM      30.04R VSB 1/4
BROKEN BOW     FOG       58  58 100 CALM      30.05R VSB 3/4
IMPERIAL       CLOUDY    51  51 100 NE5       30.08S
NORTH PLATTE   FOG       53  51  93 CALM      30.05S VSB 1/4
MCCOOK         MOCLDY    51  49  92 N7        30.07R

...EASTERN NEBRASKA...

CITY           SKY/WX    TMP DP  RH WIND       PRES   REMARKS
NORFOLK        CLOUDY    63  62  97 CALM      30.03R FOG
SO SIOUX CITY  CLOUDY    64  62  93 CALM      30.02R FOG
TEKAMAH        FOG       65  64  97 SE3       30.00S VSB 3/4
COLUMBUS       CLOUDY    64  57  77 CALM      30.02S
ALBION         CLOUDY    64  62  94 W3        30.05R FOG
OMAHA EPPLEY   FOG       67  64  90 S7        30.01R VSB 1/2
OFFUTT AFB     FOG       67  67 100 SE3       30.01R VSB 1/2
MILLARD        CLOUDY    67  66  96 SE3       30.02R FOG
LINCOLN        CLOUDY    68  67  96 SE3       30.03R FOG
NEBRASKA CITY  FOG       67  67 100 NW6       30.02R VSB 1
BEATRICE       MOCLDY    66  66  98 N3        30.02S
FALLS CITY     CLOUDY    68  68 100 SW7       29.99S

...NORTHERN KANSAS...

CITY           SKY/WX    TMP DP  RH WIND       PRES   REMARKS
GOODLAND       FOG       54  54 100 SE3       30.07R VSB 1/4
HILL CITY      CLEAR     55  54  96 N6        30.06R
SMITH CENTER   CLEAR     57  57 100 CALM      30.05S FOG
BELOIT         CLEAR     61  61 100 NW5       30.01S
HAYS           PTCLDY    59  52  77 NE3       30.03R
RUSSELL        MOCLDY    59  59 100 CALM      30.01R
CONCORDIA      MOCLDY    64  63  96 W12       30.02R
SALINA         CLEAR     66  64  93 S8        30.01F
TOPEKA         MOCLDY    67  66  97 SW3       30.06R



USA.gov is the U.S. government's official web portal to all federal, state and local government web resources and services.